Weather History for K1V4 - July, 2013

Change the Weather History Date:

Friday, July 26, 2013

  Actual Average Record
Temperature  
Mean Temperature 65 °F 70 °F  
Max Temperature 74 °F 81 °F 95 °F (1963)
Min Temperature 56 °F 59 °F 42 °F (1926)
Degree Days  
Heating Degree Days 0 0  
Month to date heating degree days 10  
Since 1 June heating degree days 82  
Since 1 July heating degree days 10  
Cooling Degree Days 0 5  
Month to date cooling degree days 178 145  
Year to date cooling degree days 274 253  
Since 1 June cooling degree days 258 235  
Growing Degree Days 15 (Base 50)    
Moisture  
Dew Point 56 °F    
Average Humidity 73    
Maximum Humidity 93    
Minimum Humidity 53    
Precipitation  
Precipitation 0.00 in 0.14 in 1.58 in (1945)
Month to date precipitation 5.33 3.39  
Year to date precipitation 22.18 20.81  
Sea Level Pressure  
Sea Level Pressure 30.02 in    
Wind  
Wind Speed - (North)    
Max Wind Speed -    
Max Gust Speed -    
T = Trace of Precipitation, MM = Missing Value Source: NWS Daily Summary

Daily Weather History Graph

Daily Weather History Graph

Search for Another Location

Airport or City:

Trip Planner

Search our weather history database for the weather conditions in past years. The results will help you decide how hot, cold, wet, or windy it might be!

Date:

Astronomy

Jul. 26, 2013 Rise Set
Actual Time 5:28 AM EDT 8:19 PM EDT
Civil Twilight 4:54 AM EDT 8:53 PM EDT
Nautical Twilight 4:11 AM EDT 9:36 PM EDT
Astronomical Twilight 3:20 AM EDT 10:26 PM EDT
Moon 10:17 PM EDT (7/26) 10:14 AM EDT (7/26)
Length of Visible Light 15h 58m
Length of Day
14h 50m
Waning Gibbous, 80% of the Moon is Illuminated
Jul 26
Waning Gibbous
Jul 29
Last Quarter
Aug 6
New
Aug 14
First Quarter
Aug 20
Full

Hourly Weather History & Observations

Time (EDT) Temp. Dew Point Humidity Pressure Visibility Wind Dir Wind Speed Gust Speed Precip Events Conditions
12:54 AM 61.0 °F 55.0 °F 81% 30.08 in - North - - N/A   Unknown
1:54 AM 59.0 °F 55.0 °F 87% 30.07 in - North - - N/A   Unknown
2:54 AM 57.9 °F 55.0 °F 90% 30.06 in - North - - N/A   Unknown
3:54 AM 57.9 °F 54.0 °F 87% 30.07 in - North - - N/A   Unknown
4:54 AM 57.0 °F 54.0 °F 89% 30.06 in - North - - N/A   Unknown
5:54 AM 57.0 °F 54.0 °F 89% 30.06 in - North - - N/A   Unknown
6:54 AM 57.0 °F 54.0 °F 89% 30.07 in - North - - N/A   Unknown
7:54 AM 59.0 °F 54.0 °F 83% 30.06 in - North - - N/A   Unknown
8:54 AM 62.1 °F 54.0 °F 75% 30.05 in - North - - N/A   Unknown
9:54 AM 64.9 °F 55.0 °F 70% 30.04 in - North - - N/A   Unknown
10:54 AM 68.0 °F 55.9 °F 65% 30.03 in - North - - N/A   Unknown
11:54 AM 71.1 °F 55.9 °F 59% 30.01 in - North - - N/A   Unknown
12:54 PM 72.0 °F 55.0 °F 55% 30.00 in - North - - N/A   Unknown
1:54 PM 73.0 °F 55.9 °F 55% 29.98 in - North - - N/A   Unknown
2:54 PM 73.0 °F 59.0 °F 61% 29.97 in - North - - N/A   Unknown
3:54 PM 73.0 °F 57.9 °F 59% 29.96 in - North - - N/A   Unknown
4:54 PM 72.0 °F 57.9 °F 61% 29.98 in - North - - N/A   Unknown
5:54 PM 71.1 °F 57.0 °F 61% 29.97 in - North - - N/A   Unknown
6:54 PM 71.1 °F 57.0 °F 61% 29.97 in - North - - N/A   Unknown
7:54 PM 70.0 °F 57.0 °F 63% 29.97 in - North - - N/A   Unknown
8:54 PM 68.0 °F 55.9 °F 65% 29.96 in - North - - N/A   Unknown
9:54 PM 64.9 °F 57.9 °F 78% 29.98 in - North - - N/A   Unknown
10:54 PM 62.1 °F 57.9 °F 86% 29.98 in - North - - N/A   Unknown
11:54 PM 61.0 °F 57.0 °F 87% 29.99 in - North - - N/A   Unknown